Location: Clyde
(45.1830°S, 169.3170°E)
Time: 12:31:24
(UTC+13:00)

ISS - Visible Passes

Search period start: 22 October 2019 00:00
Search period end: 01 November 2019 00:00
Orbit: 411 x 421 km, 51.6° (Epoch: 21 October)

Date Brightness Start Highest point End Pass type
(mag) Time Alt. Az. Time Alt. Az. Time Alt. Az.
22 Oct -2.9 21:46:24 10° W 21:49:44 52° SSW 21:53:06 10° SE visible
22 Oct -1.3 23:24:00 10° WSW 23:26:03 23° SSW 23:26:03 23° SSW visible
23 Oct -3.5 20:57:43 10° WNW 21:01:07 76° SSW 21:04:32 10° ESE visible
23 Oct -1.8 22:35:12 10° WSW 22:38:13 29° S 22:39:40 21° SSE visible
24 Oct -0.3 00:12:29 10° SW 00:12:35 11° SW 00:12:35 11° SW visible
24 Oct -2.0 21:46:22 10° W 21:49:29 33° SSW 21:52:38 10° SE visible
24 Oct -1.4 23:23:50 10° SW 23:26:03 25° SSW 23:26:03 25° SSW visible
25 Oct -2.4 20:57:31 10° W 21:00:46 41° SSW 21:04:02 10° SE visible
25 Oct -1.7 22:35:07 10° WSW 22:38:05 26° S 22:39:23 21° SE visible
26 Oct -0.4 00:12:01 10° SW 00:12:17 12° SW 00:12:17 12° SW visible
26 Oct -1.8 21:46:19 10° WSW 21:49:17 27° S 21:52:17 10° ESE visible
26 Oct -1.7 23:23:25 10° SW 23:25:33 28° SSW 23:25:33 28° SSW visible
27 Oct -1.9 20:57:28 10° WSW 21:00:29 29° S 21:03:33 10° SE visible
27 Oct -2.2 22:34:47 10° SW 22:37:52 30° S 22:38:46 26° SE visible
28 Oct -0.5 00:11:28 10° WSW 00:11:39 11° WSW 00:11:39 11° WSW visible
28 Oct -1.9 21:46:05 10° SW 21:49:05 27° S 21:51:57 11° ESE visible
28 Oct -1.9 23:22:51 10° WSW 23:24:50 31° SW 23:24:50 31° SW visible
29 Oct -1.8 20:57:18 10° WSW 21:00:15 26° S 21:03:13 10° ESE visible
29 Oct -3.0 22:34:14 10° SW 22:37:33 45° SSE 22:38:00 42° SE visible
30 Oct -2.4 21:45:36 10° SW 21:48:46 35° SSE 21:51:10 15° ESE visible
30 Oct -1.8 23:22:17 10° WSW 23:24:03 27° WSW 23:24:03 27° WSW visible
31 Oct -2.1 20:56:54 10° SW 20:59:58 30° S 21:03:02 10° ESE visible
31 Oct -3.9 22:33:35 10° WSW 22:37:01 87° SSE 22:37:13 78° ENE visible
